IBE32LP EGCC-LEMD

Flight info

Callsign IBE32LP
Flight time 1h 56m
Altitude 23000
Route ASMIM DCT NOKIN P17 BEPHE/N0485F380 DCT OSSEP DCT ELNIF DCT ZESPE DCT DAWLY DCT BHD DCT SALCO/N0488F390 DCT GOPIN DCT DELOG N864 NONTU
Aircraft A359/H-SDE2E3GHIJ3J4J5LM1ORWXY/LB1D1

Departure

Time 2026-05-05 20:10
Airport Manchester Airport (EGCC)

Arrival

Time 2026-05-05 22:07
Airport Adolfo Suárez Madrid–Barajas Airport (LEMD)
Time Latitude Longitude Altitude Speed Heading
2026-05-05 18:05 53.36772 -2.28923 261 ft 0 kts 135°
2026-05-05 18:31 53.36773 -2.28923 261 ft 0 kts 135°
2026-05-05 18:48 53.36772 -2.28923 261 ft 0 kts 135°
2026-05-05 19:08 53.36773 -2.28923 261 ft 0 kts 135°
2026-05-05 19:16 53.36773 -2.28924 261 ft 0 kts 135°
2026-05-05 19:55 53.36776 -2.28929 261 ft 2 kts 135°
2026-05-05 19:55 53.36789 -2.28952 263 ft 3 kts 135°
2026-05-05 19:55 53.36804 -2.28976 266 ft 3 kts 135°
2026-05-05 19:56 53.36816 -2.28995 265 ft 3 kts 166°
2026-05-05 19:56 53.36832 -2.28993 267 ft 3 kts 213°
2026-05-05 19:56 53.36844 -2.28979 266 ft 1 kts 225°
2026-05-05 19:56 53.36855 -2.28960 265 ft 3 kts 225°
2026-05-05 19:57 53.36869 -2.28936 268 ft 3 kts 225°
2026-05-05 19:57 53.36877 -2.28924 268 ft 1 kts 225°
2026-05-05 19:57 53.36878 -2.28921 268 ft 0 kts 225°
2026-05-05 19:59 53.36876 -2.28924 268 ft 1 kts 225°
2026-05-05 20:00 53.36862 -2.28948 261 ft 5 kts 224°
2026-05-05 20:00 53.36819 -2.29003 261 ft 10 kts 211°
2026-05-05 20:00 53.36773 -2.29028 261 ft 5 kts 179°
2026-05-05 20:00 53.36728 -2.29004 261 ft 9 kts 152°
2026-05-05 20:01 53.36717 -2.28988 261 ft 2 kts 139°
2026-05-05 20:01 53.36692 -2.28948 261 ft 7 kts 136°
2026-05-05 20:01 53.36646 -2.28900 261 ft 9 kts 147°
2026-05-05 20:01 53.36597 -2.28815 261 ft 8 kts 122°
2026-05-05 20:02 53.36557 -2.28721 261 ft 12 kts 129°
2026-05-05 20:02 53.36539 -2.28689 261 ft 0 kts 134°
2026-05-05 20:02 53.36533 -2.28679 261 ft 3 kts 135°
2026-05-05 20:02 53.36512 -2.28644 261 ft 0 kts 136°
2026-05-05 20:03 53.36507 -2.28636 261 ft 3 kts 135°
2026-05-05 20:03 53.36475 -2.28582 261 ft 9 kts 134°
2026-05-05 20:03 53.36443 -2.28530 261 ft 0 kts 140°
2026-05-05 20:03 53.36441 -2.28529 261 ft 1 kts 141°
2026-05-05 20:04 53.36403 -2.28496 261 ft 14 kts 160°
2026-05-05 20:04 53.36319 -2.28424 261 ft 16 kts 139°
2026-05-05 20:04 53.36226 -2.28274 261 ft 16 kts 135°
2026-05-05 20:04 53.36181 -2.28199 261 ft 17 kts 135°
2026-05-05 20:05 53.36042 -2.27975 261 ft 23 kts 138°
2026-05-05 20:05 53.35936 -2.27862 262 ft 15 kts 165°
2026-05-05 20:05 53.35873 -2.27852 260 ft 10 kts 182°
2026-05-05 20:05 53.35737 -2.27877 253 ft 27 kts 187°
2026-05-05 20:06 53.35600 -2.27960 245 ft 21 kts 223°
2026-05-05 20:06 53.35485 -2.28131 240 ft 18 kts 205°
2026-05-05 20:06 53.35330 -2.28198 239 ft 29 kts 198°
2026-05-05 20:06 53.35186 -2.28390 240 ft 31 kts 231°
2026-05-05 20:07 53.35036 -2.28692 240 ft 34 kts 228°
2026-05-05 20:07 53.34854 -2.29026 225 ft 38 kts 227°
2026-05-05 20:07 53.34702 -2.29302 221 ft 16 kts 215°
2026-05-05 20:07 53.34695 -2.29308 219 ft 0 kts 206°
2026-05-05 20:08 53.34683 -2.29318 225 ft 5 kts 205°
2026-05-05 20:08 53.34632 -2.29342 225 ft 8 kts 181°
2026-05-05 20:09 53.34582 -2.29323 221 ft 0 kts 153°
2026-05-05 20:09 53.34573 -2.29312 229 ft 8 kts 144°
2026-05-05 20:09 53.34562 -2.29195 229 ft 13 kts 71°
2026-05-05 20:09 53.34629 -2.29044 229 ft 19 kts 51°
2026-05-05 20:10 53.34766 -2.28759 234 ft 63 kts 51°
2026-05-05 20:10 53.35157 -2.27971 240 ft 128 kts 59°
2026-05-05 20:10 53.35802 -2.26621 380 ft 177 kts 52°
2026-05-05 20:10 53.36606 -2.24966 1246 ft 184 kts 47°
2026-05-05 20:11 53.37747 -2.23813 2111 ft 204 kts 18°
2026-05-05 20:11 53.39246 -2.24092 2603 ft 239 kts 339°
2026-05-05 20:11 53.40575 -2.25946 3263 ft 258 kts 314°
2026-05-05 20:11 53.41748 -2.28263 4123 ft 263 kts 312°
2026-05-05 20:12 53.42947 -2.30602 4767 ft 264 kts 312°
2026-05-05 20:12 53.44160 -2.32920 5297 ft 264 kts 309°
2026-05-05 20:12 53.45159 -2.35516 6142 ft 265 kts 298°
2026-05-05 20:12 53.46003 -2.38254 7105 ft 264 kts 297°
2026-05-05 20:13 53.46749 -2.41079 7999 ft 265 kts 288°
2026-05-05 20:13 53.46938 -2.44162 8911 ft 269 kts 268°
2026-05-05 20:13 53.46669 -2.47238 9781 ft 272 kts 262°
2026-05-05 20:13 53.46301 -2.50416 10428 ft 282 kts 262°
2026-05-05 20:14 53.45917 -2.53709 10939 ft 294 kts 262°
2026-05-05 20:14 53.45526 -2.57157 11462 ft 307 kts 261°
2026-05-05 20:14 53.45089 -2.60738 11910 ft 320 kts 257°
2026-05-05 20:14 53.44128 -2.64205 12301 ft 338 kts 235°
2026-05-05 20:15 53.42358 -2.66794 12843 ft 349 kts 214°
2026-05-05 20:15 53.40153 -2.68684 13475 ft 355 kts 205°
2026-05-05 20:15 53.37827 -2.70187 14111 ft 360 kts 201°
2026-05-05 20:15 53.35471 -2.71512 14708 ft 363 kts 200°
2026-05-05 20:16 53.33060 -2.72826 15337 ft 365 kts 200°
2026-05-05 20:16 53.30648 -2.74175 15968 ft 367 kts 201°
2026-05-05 20:16 53.28217 -2.75589 16590 ft 370 kts 201°
2026-05-05 20:16 53.25786 -2.77051 17243 ft 372 kts 202°
2026-05-05 20:17 53.23354 -2.78546 17868 ft 375 kts 202°
2026-05-05 20:17 53.20896 -2.80074 18462 ft 377 kts 202°
2026-05-05 20:17 53.18428 -2.81612 18990 ft 380 kts 202°
2026-05-05 20:17 53.15927 -2.83170 19502 ft 383 kts 202°
2026-05-05 20:18 53.13447 -2.84711 20033 ft 385 kts 202°
2026-05-05 20:18 53.10933 -2.86262 20548 ft 388 kts 202°
2026-05-05 20:18 53.08292 -2.87395 21068 ft 394 kts 191°
2026-05-05 20:18 53.05529 -2.87563 21558 ft 400 kts 180°
2026-05-05 20:19 53.02740 -2.87164 22058 ft 404 kts 175°
2026-05-05 20:19 52.99943 -2.86494 22539 ft 407 kts 173°
2026-05-05 20:19 52.97147 -2.85692 23013 ft 410 kts 172°
2026-05-05 20:19 52.94324 -2.84842 23513 ft 413 kts 172°
2026-05-05 20:20 52.91496 -2.83996 23936 ft 415 kts 172°
2026-05-05 20:20 52.88630 -2.83164 24346 ft 418 kts 172°
2026-05-05 20:20 52.85789 -2.82365 24740 ft 420 kts 172°
2026-05-05 20:20 52.82897 -2.81572 25149 ft 423 kts 173°
2026-05-05 20:21 52.79951 -2.80777 25596 ft 425 kts 173°
2026-05-05 20:21 52.77059 -2.79996 26050 ft 428 kts 173°
2026-05-05 20:21 52.74105 -2.79205 26521 ft 431 kts 173°
2026-05-05 20:21 52.71133 -2.78415 26986 ft 434 kts 172°
2026-05-05 20:22 52.68118 -2.77609 27498 ft 438 kts 172°
2026-05-05 20:22 52.65112 -2.76807 28011 ft 441 kts 172°
2026-05-05 20:22 52.62060 -2.76123 28541 ft 444 kts 176°
2026-05-05 20:22 52.58967 -2.76033 29085 ft 446 kts 182°
2026-05-05 20:23 52.55854 -2.76176 29630 ft 449 kts 184°
2026-05-05 20:23 52.52714 -2.76417 30143 ft 453 kts 184°
2026-05-05 20:23 52.49560 -2.76708 30592 ft 457 kts 185°
2026-05-05 20:23 52.46358 -2.77022 30937 ft 463 kts 184°
2026-05-05 20:24 52.43118 -2.77330 31292 ft 469 kts 184°
2026-05-05 20:24 52.39853 -2.77630 31749 ft 471 kts 184°
2026-05-05 20:24 52.36608 -2.77920 32238 ft 473 kts 184°
2026-05-05 20:24 52.33270 -2.78210 32659 ft 477 kts 184°
2026-05-05 20:25 52.29986 -2.78491 33019 ft 481 kts 184°
2026-05-05 20:25 52.26634 -2.78777 33430 ft 483 kts 184°
2026-05-05 20:25 52.23267 -2.79064 33881 ft 485 kts 184°
2026-05-05 20:25 52.19889 -2.79352 34230 ft 488 kts 184°
2026-05-05 20:26 52.16472 -2.79643 34561 ft 490 kts 184°
2026-05-05 20:26 52.13079 -2.79933 35046 ft 488 kts 184°
2026-05-05 20:26 52.09698 -2.80220 35537 ft 486 kts 184°
2026-05-05 20:26 52.06314 -2.80507 36000 ft 485 kts 184°
2026-05-05 20:27 52.02940 -2.80798 36424 ft 485 kts 184°
2026-05-05 20:27 51.99566 -2.81087 36855 ft 484 kts 184°
2026-05-05 20:27 51.96221 -2.81369 37385 ft 483 kts 184°
2026-05-05 20:27 51.92855 -2.81651 37811 ft 482 kts 184°
2026-05-05 20:28 51.89501 -2.81933 38210 ft 483 kts 184°
2026-05-05 20:28 51.86194 -2.82211 38612 ft 482 kts 184°
2026-05-05 20:28 51.82831 -2.82556 38933 ft 482 kts 186°
2026-05-05 20:28 51.79501 -2.83168 39042 ft 483 kts 189°
2026-05-05 20:29 51.76165 -2.83945 39043 ft 483 kts 190°
2026-05-05 20:29 51.69516 -2.85582 39050 ft 483 kts 189°
2026-05-05 20:30 51.62868 -2.87112 39043 ft 483 kts 189°
2026-05-05 20:30 51.56227 -2.88713 39030 ft 482 kts 194°
2026-05-05 20:31 51.49815 -2.91936 39019 ft 482 kts 200°
2026-05-05 20:31 51.43551 -2.95668 39004 ft 483 kts 201°
2026-05-05 20:32 51.37265 -2.99497 39003 ft 483 kts 201°
2026-05-05 20:32 51.30980 -3.03285 38988 ft 483 kts 201°
2026-05-05 20:33 51.24676 -3.07045 38986 ft 483 kts 201°
2026-05-05 20:33 51.18393 -3.10771 38987 ft 483 kts 201°
2026-05-05 20:34 51.12084 -3.14502 38988 ft 483 kts 201°
2026-05-05 20:34 51.05768 -3.18227 38988 ft 483 kts 201°
2026-05-05 20:35 50.99456 -3.21940 38991 ft 484 kts 201°
2026-05-05 20:35 50.93144 -3.25642 38991 ft 484 kts 201°
2026-05-05 20:36 50.86820 -3.29340 38988 ft 484 kts 201°
2026-05-05 20:36 50.80494 -3.33029 38992 ft 485 kts 201°
2026-05-05 20:37 50.74202 -3.36688 38993 ft 485 kts 201°
2026-05-05 20:37 50.67861 -3.40364 38994 ft 485 kts 201°
2026-05-05 20:38 50.61529 -3.44025 38979 ft 485 kts 201°
2026-05-05 20:38 50.55007 -3.46720 38980 ft 486 kts 189°
2026-05-05 20:39 50.48285 -3.48057 38979 ft 487 kts 187°
2026-05-05 20:39 50.41540 -3.49153 38976 ft 487 kts 186°
2026-05-05 20:40 50.34780 -3.49981 38975 ft 488 kts 183°
2026-05-05 20:40 50.27988 -3.50221 38980 ft 488 kts 182°
2026-05-05 20:41 50.21223 -3.50434 38978 ft 488 kts 182°
2026-05-05 20:41 50.14428 -3.50749 38977 ft 488 kts 183°
2026-05-05 20:42 50.07639 -3.51116 38974 ft 489 kts 183°
2026-05-05 20:42 50.00824 -3.51493 38974 ft 489 kts 183°
2026-05-05 20:43 49.94020 -3.51865 38974 ft 489 kts 183°
2026-05-05 20:43 49.87226 -3.52231 38977 ft 490 kts 183°
2026-05-05 20:44 49.80382 -3.52599 38972 ft 490 kts 182°
2026-05-05 20:44 49.73607 -3.52961 38972 ft 490 kts 182°
2026-05-05 20:45 49.63380 -3.53557 38975 ft 491 kts 183°
2026-05-05 20:45 49.56534 -3.53967 38973 ft 492 kts 183°
2026-05-05 20:46 49.49691 -3.54371 38973 ft 492 kts 183°
2026-05-05 20:46 49.42871 -3.54770 38970 ft 492 kts 183°
2026-05-05 20:47 49.35997 -3.55173 38977 ft 492 kts 183°
2026-05-05 20:47 49.29204 -3.55567 38981 ft 492 kts 183°
2026-05-05 20:48 49.22370 -3.55965 38978 ft 492 kts 183°
2026-05-05 20:48 49.15496 -3.56362 38976 ft 493 kts 183°
2026-05-05 20:49 49.08640 -3.56758 38982 ft 493 kts 183°
2026-05-05 20:49 49.01812 -3.57151 38980 ft 493 kts 182°
2026-05-05 20:50 48.96093 -3.57479 38984 ft 493 kts 183°
2026-05-05 20:50 48.88077 -3.57939 38991 ft 493 kts 183°
2026-05-05 20:51 48.81222 -3.58330 38992 ft 493 kts 183°
2026-05-05 20:51 48.74351 -3.58722 38994 ft 493 kts 183°
2026-05-05 20:52 48.67532 -3.59109 38994 ft 493 kts 183°
2026-05-05 20:52 48.60664 -3.59497 38992 ft 493 kts 183°
2026-05-05 20:53 48.54963 -3.59821 38988 ft 493 kts 183°
2026-05-05 20:53 48.48119 -3.60206 38984 ft 492 kts 182°
2026-05-05 20:54 48.41250 -3.60591 38986 ft 492 kts 183°
2026-05-05 20:54 48.34397 -3.60976 38992 ft 492 kts 182°
2026-05-05 20:55 48.27589 -3.61357 38989 ft 492 kts 182°
2026-05-05 20:55 48.20722 -3.61740 38989 ft 492 kts 182°
2026-05-05 20:56 48.13882 -3.62120 38983 ft 492 kts 182°
2026-05-05 20:56 48.07064 -3.62500 38984 ft 492 kts 182°
2026-05-05 20:57 48.00225 -3.62877 38985 ft 492 kts 182°
2026-05-05 20:57 47.93353 -3.63256 38984 ft 493 kts 182°
2026-05-05 20:58 47.86507 -3.63633 38981 ft 494 kts 182°
2026-05-05 20:58 47.79625 -3.64010 38969 ft 494 kts 182°
2026-05-05 20:59 47.72782 -3.64385 38964 ft 494 kts 182°
2026-05-05 20:59 47.65890 -3.64761 38967 ft 495 kts 182°
2026-05-05 21:00 47.59041 -3.65133 38969 ft 495 kts 182°
2026-05-05 21:00 47.52110 -3.65509 38973 ft 496 kts 182°
2026-05-05 21:01 47.45254 -3.65881 38970 ft 496 kts 182°
2026-05-05 21:01 47.38352 -3.66255 38972 ft 497 kts 182°
2026-05-05 21:02 47.31460 -3.66625 38968 ft 496 kts 183°
2026-05-05 21:02 47.24547 -3.66997 38972 ft 496 kts 183°
2026-05-05 21:03 47.17619 -3.67368 38976 ft 496 kts 183°
2026-05-05 21:03 47.10739 -3.67737 38973 ft 496 kts 183°
2026-05-05 21:04 47.03853 -3.68104 38977 ft 497 kts 182°
2026-05-05 21:04 46.96912 -3.68755 38974 ft 496 kts 186°
2026-05-05 21:05 46.90083 -3.69671 38963 ft 496 kts 186°
2026-05-05 21:05 46.83182 -3.70559 38966 ft 498 kts 186°
2026-05-05 21:06 46.76263 -3.71393 38967 ft 498 kts 185°
2026-05-05 21:06 46.69367 -3.72199 38968 ft 498 kts 185°
2026-05-05 21:07 46.62462 -3.73002 38975 ft 498 kts 185°
2026-05-05 21:07 46.55564 -3.73806 38969 ft 497 kts 185°
2026-05-05 21:08 46.48649 -3.74611 38968 ft 498 kts 185°
2026-05-05 21:08 46.41774 -3.75408 38968 ft 498 kts 186°
2026-05-05 21:09 46.34874 -3.76210 38966 ft 498 kts 185°
2026-05-05 21:09 46.27974 -3.77005 38966 ft 498 kts 186°
2026-05-05 21:10 46.21056 -3.77802 38972 ft 498 kts 186°
2026-05-05 21:10 46.14129 -3.78598 38971 ft 498 kts 186°
2026-05-05 21:11 46.07217 -3.79390 38965 ft 498 kts 186°
2026-05-05 21:11 46.00326 -3.80177 38977 ft 498 kts 186°
2026-05-05 21:12 45.93416 -3.80965 38971 ft 498 kts 186°
2026-05-05 21:12 45.86496 -3.81754 38970 ft 498 kts 186°
2026-05-05 21:13 45.79594 -3.82539 38967 ft 497 kts 186°
2026-05-05 21:13 45.72710 -3.83319 38968 ft 497 kts 186°
2026-05-05 21:14 45.65799 -3.84100 38971 ft 496 kts 186°
2026-05-05 21:14 45.58954 -3.84871 38971 ft 496 kts 186°
2026-05-05 21:15 45.52064 -3.85645 38971 ft 496 kts 186°
2026-05-05 21:15 45.45168 -3.86419 38986 ft 496 kts 186°
2026-05-05 21:16 45.38293 -3.87187 38987 ft 496 kts 186°
2026-05-05 21:16 45.31442 -3.87953 38970 ft 496 kts 186°
2026-05-05 21:17 45.24555 -3.88721 38990 ft 497 kts 186°
2026-05-05 21:17 45.17654 -3.89486 38990 ft 497 kts 186°
2026-05-05 21:18 45.10744 -3.90251 38991 ft 497 kts 186°
2026-05-05 21:18 45.03855 -3.91011 38993 ft 496 kts 186°
2026-05-05 21:19 44.96976 -3.91769 38996 ft 496 kts 186°
2026-05-05 21:19 44.90134 -3.92523 38996 ft 496 kts 186°
2026-05-05 21:20 44.83257 -3.93277 38999 ft 495 kts 186°
2026-05-05 21:20 44.76369 -3.94030 39001 ft 495 kts 186°
2026-05-05 21:21 44.69498 -3.94781 39004 ft 495 kts 186°
2026-05-05 21:21 44.62662 -3.95525 39004 ft 495 kts 186°
2026-05-05 21:22 44.55794 -3.96272 39004 ft 495 kts 186°
2026-05-05 21:22 44.48934 -3.97015 39006 ft 494 kts 186°
2026-05-05 21:23 44.42072 -3.97757 39010 ft 494 kts 186°
2026-05-05 21:23 44.35201 -3.98496 39015 ft 494 kts 186°
2026-05-05 21:24 44.28344 -3.98324 39018 ft 496 kts 179°
2026-05-05 21:24 44.21459 -3.97684 39018 ft 496 kts 178°
2026-05-05 21:25 44.14552 -3.96976 39013 ft 496 kts 178°
2026-05-05 21:25 44.07695 -3.96286 39028 ft 496 kts 178°
2026-05-05 21:26 44.00829 -3.95614 39029 ft 496 kts 178°
2026-05-05 21:26 43.93935 -3.94945 39030 ft 496 kts 179°
2026-05-05 21:27 43.87045 -3.94279 39035 ft 496 kts 179°
2026-05-05 21:27 43.80151 -3.93613 39039 ft 496 kts 179°
2026-05-05 21:28 43.73273 -3.92945 39038 ft 496 kts 179°
2026-05-05 21:28 43.66361 -3.92280 39045 ft 496 kts 179°
2026-05-05 21:29 43.59514 -3.91628 39050 ft 496 kts 179°
2026-05-05 21:29 43.52614 -3.90969 39046 ft 496 kts 179°
2026-05-05 21:30 43.45730 -3.90415 39047 ft 495 kts 183°
2026-05-05 21:30 43.38878 -3.91088 39047 ft 492 kts 189°
2026-05-05 21:31 43.32056 -3.92096 39049 ft 491 kts 189°
2026-05-05 21:31 43.25272 -3.93141 39056 ft 491 kts 189°
2026-05-05 21:32 43.18511 -3.94160 39057 ft 491 kts 189°
2026-05-05 21:32 43.11691 -3.95166 39072 ft 492 kts 189°
2026-05-05 21:33 43.04896 -3.96164 39067 ft 491 kts 189°
2026-05-05 21:33 42.98120 -3.97157 39075 ft 491 kts 189°
2026-05-05 21:34 42.91287 -3.98166 39079 ft 491 kts 190°
2026-05-05 21:34 42.84499 -3.99156 39079 ft 492 kts 189°
2026-05-05 21:35 42.77688 -4.00141 39077 ft 492 kts 189°
2026-05-05 21:35 42.70865 -4.01130 39076 ft 492 kts 189°
2026-05-05 21:36 42.64063 -4.02117 39071 ft 492 kts 189°
2026-05-05 21:36 42.57255 -4.03102 39073 ft 492 kts 189°
2026-05-05 21:37 42.50485 -4.04085 39061 ft 492 kts 190°
2026-05-05 21:37 42.43665 -4.05065 39067 ft 492 kts 190°
2026-05-05 21:38 42.38007 -4.05877 39068 ft 492 kts 190°
2026-05-05 21:38 42.31203 -4.06852 39061 ft 491 kts 190°
2026-05-05 21:39 42.24407 -4.07825 39062 ft 491 kts 190°
2026-05-05 21:39 42.17614 -4.08796 39059 ft 491 kts 190°
2026-05-05 21:40 42.10803 -4.09767 39058 ft 490 kts 190°
2026-05-05 21:40 42.04049 -4.10727 39060 ft 489 kts 190°
2026-05-05 21:41 41.97272 -4.11588 39061 ft 489 kts 189°
2026-05-05 21:41 41.90466 -4.12334 39043 ft 489 kts 189°
2026-05-05 21:42 41.83732 -4.13088 39053 ft 488 kts 189°
2026-05-05 21:42 41.76985 -4.13851 39046 ft 487 kts 189°
2026-05-05 21:43 41.70217 -4.14618 39046 ft 487 kts 189°
2026-05-05 21:43 41.63447 -4.15383 39045 ft 487 kts 189°
2026-05-05 21:44 41.56703 -4.16144 38649 ft 483 kts 189°
2026-05-05 21:44 41.53359 -4.16521 37844 ft 483 kts 190°
2026-05-05 21:44 41.50071 -4.16890 37202 ft 480 kts 190°
2026-05-05 21:45 41.46759 -4.17265 36540 ft 476 kts 191°
2026-05-05 21:45 41.43456 -4.17635 35916 ft 473 kts 191°
2026-05-05 21:45 41.40200 -4.18000 35272 ft 470 kts 191°
2026-05-05 21:45 41.36936 -4.18366 34583 ft 469 kts 191°
2026-05-05 21:46 41.33682 -4.18731 33808 ft 469 kts 191°
2026-05-05 21:46 41.30450 -4.19094 33022 ft 467 kts 192°
2026-05-05 21:46 41.27204 -4.19457 32269 ft 465 kts 192°
2026-05-05 21:46 41.23986 -4.19776 31488 ft 464 kts 190°
2026-05-05 21:47 41.20761 -4.19963 30713 ft 464 kts 189°
2026-05-05 21:47 41.17541 -4.20130 29880 ft 464 kts 189°
2026-05-05 21:47 41.14311 -4.20306 29290 ft 463 kts 189°
2026-05-05 21:47 41.11114 -4.20488 28735 ft 460 kts 189°
2026-05-05 21:48 41.07921 -4.20674 28162 ft 456 kts 189°
2026-05-05 21:48 41.04765 -4.20861 27575 ft 453 kts 189°
2026-05-05 21:48 41.01642 -4.21048 27034 ft 449 kts 189°
2026-05-05 21:48 40.98525 -4.21235 26493 ft 445 kts 189°
2026-05-05 21:49 40.95460 -4.21420 25945 ft 443 kts 189°
2026-05-05 21:49 40.92389 -4.21606 25400 ft 440 kts 189°
2026-05-05 21:49 40.89350 -4.21790 24859 ft 438 kts 189°
2026-05-05 21:49 40.86302 -4.21974 24316 ft 435 kts 189°
2026-05-05 21:50 40.83289 -4.22160 23771 ft 432 kts 189°
2026-05-05 21:50 40.80288 -4.22340 23173 ft 429 kts 189°
2026-05-05 21:50 40.77325 -4.22518 22621 ft 425 kts 189°
2026-05-05 21:50 40.74376 -4.22695 22080 ft 421 kts 189°
2026-05-05 21:51 40.71464 -4.22871 21549 ft 418 kts 188°
2026-05-05 21:51 40.68564 -4.23044 21014 ft 415 kts 188°
2026-05-05 21:51 40.65687 -4.23218 20461 ft 410 kts 188°
2026-05-05 21:51 40.62863 -4.23386 19933 ft 405 kts 188°
2026-05-05 21:52 40.57234 -4.23727 18845 ft 403 kts 187°
2026-05-05 21:52 40.54435 -4.23863 18298 ft 401 kts 184°
2026-05-05 21:52 40.51663 -4.23447 17711 ft 404 kts 169°
2026-05-05 21:53 40.49025 -4.22292 17146 ft 403 kts 162°
2026-05-05 21:53 40.46402 -4.20933 16588 ft 396 kts 161°
2026-05-05 21:53 40.43858 -4.19601 16018 ft 392 kts 161°
2026-05-05 21:53 40.41366 -4.18306 15484 ft 390 kts 161°
2026-05-05 21:54 40.38849 -4.17006 14919 ft 387 kts 161°
2026-05-05 21:54 40.36431 -4.15457 14378 ft 387 kts 149°
2026-05-05 21:54 40.34450 -4.13116 13873 ft 385 kts 129°
2026-05-05 21:54 40.33125 -4.10006 13609 ft 399 kts 112°
2026-05-05 21:55 40.32200 -4.06525 13426 ft 405 kts 109°
2026-05-05 21:55 40.31339 -4.03010 12916 ft 403 kts 108°
2026-05-05 21:55 40.30484 -3.99517 12557 ft 400 kts 108°
2026-05-05 21:55 40.29631 -3.96071 12307 ft 390 kts 109°
2026-05-05 21:56 40.28819 -3.92817 12075 ft 371 kts 109°
2026-05-05 21:56 40.28033 -3.89680 11827 ft 355 kts 109°
2026-05-05 21:56 40.27277 -3.86672 11614 ft 339 kts 112°
2026-05-05 21:56 40.26542 -3.83799 11384 ft 325 kts 109°
2026-05-05 21:57 40.25846 -3.81036 11064 ft 316 kts 109°
2026-05-05 21:57 40.25163 -3.78326 10749 ft 308 kts 109°
2026-05-05 21:57 40.24498 -3.75695 10518 ft 304 kts 109°
2026-05-05 21:57 40.23834 -3.73062 10266 ft 303 kts 109°
2026-05-05 21:58 40.23169 -3.70437 9959 ft 303 kts 109°
2026-05-05 21:58 40.22508 -3.67843 9561 ft 300 kts 109°
2026-05-05 21:58 40.21850 -3.65267 9287 ft 298 kts 109°
2026-05-05 21:58 40.21193 -3.62694 9037 ft 297 kts 109°
2026-05-05 21:59 40.20536 -3.60123 8793 ft 296 kts 109°
2026-05-05 21:59 40.19885 -3.57574 8558 ft 295 kts 109°
2026-05-05 21:59 40.19234 -3.55033 8308 ft 293 kts 108°
2026-05-05 21:59 40.18601 -3.52558 8120 ft 287 kts 108°
2026-05-05 22:00 40.18011 -3.50117 7918 ft 276 kts 103°
2026-05-05 22:00 40.17946 -3.47684 7709 ft 266 kts 77°
2026-05-05 22:00 40.18743 -3.45538 7443 ft 261 kts 47°
2026-05-05 22:00 40.20174 -3.44160 7194 ft 256 kts 25°
2026-05-05 22:01 40.21793 -3.43208 7003 ft 254 kts 20°
2026-05-05 22:01 40.23398 -3.42342 6846 ft 243 kts 20°
2026-05-05 22:01 40.24929 -3.41507 6734 ft 232 kts 21°
2026-05-05 22:01 40.26397 -3.40695 6518 ft 226 kts 21°
2026-05-05 22:02 40.27829 -3.39896 6283 ft 221 kts 21°
2026-05-05 22:02 40.29215 -3.39118 6105 ft 214 kts 21°
2026-05-05 22:02 40.30557 -3.38395 5977 ft 204 kts 15°
2026-05-05 22:02 40.31917 -3.38427 5799 ft 193 kts 346°
2026-05-05 22:03 40.33125 -3.39152 5568 ft 191 kts 327°
2026-05-05 22:03 40.34181 -3.40215 5278 ft 192 kts 321°
2026-05-05 22:03 40.35219 -3.41312 4995 ft 192 kts 322°
2026-05-05 22:03 40.36287 -3.42382 4723 ft 192 kts 323°
2026-05-05 22:04 40.37345 -3.43449 4458 ft 193 kts 323°
2026-05-05 22:04 40.38402 -3.44526 4196 ft 191 kts 323°
2026-05-05 22:04 40.39457 -3.45596 3925 ft 189 kts 323°
2026-05-05 22:04 40.40478 -3.46634 3684 ft 187 kts 323°
2026-05-05 22:05 40.41505 -3.47677 3442 ft 185 kts 323°
2026-05-05 22:05 40.42538 -3.48725 3142 ft 184 kts 323°
2026-05-05 22:05 40.43531 -3.49733 2903 ft 181 kts 322°
2026-05-05 22:05 40.44520 -3.50741 2679 ft 180 kts 322°
2026-05-05 22:06 40.45490 -3.51727 2455 ft 172 kts 321°
2026-05-05 22:06 40.46411 -3.52666 2225 ft 162 kts 322°
2026-05-05 22:06 40.47269 -3.53538 2006 ft 150 kts 323°
2026-05-05 22:06 40.48061 -3.54343 1939 ft 133 kts 322°
2026-05-05 22:07 40.48673 -3.54968 1954 ft 92 kts 320°
2026-05-05 22:07 40.48848 -3.55358 1957 ft 35 kts 292°
2026-05-05 22:07 40.48952 -3.55522 1960 ft 21 kts 318°
2026-05-05 22:07 40.49051 -3.55636 1963 ft 18 kts 321°
2026-05-05 22:08 40.49197 -3.55780 1966 ft 37 kts 322°
2026-05-05 22:08 40.49401 -3.55980 1966 ft 32 kts 322°
2026-05-05 22:08 40.49540 -3.56145 1966 ft 1 kts 288°
2026-05-05 22:08 40.49541 -3.56150 1966 ft 1 kts 287°
2026-05-05 22:09 40.49543 -3.56163 1966 ft 0 kts 282°
2026-05-05 22:09 40.49543 -3.56165 1966 ft 1 kts 281°
2026-05-05 22:09 40.49540 -3.56203 1966 ft 6 kts 253°
2026-05-05 22:09 40.49514 -3.56234 1971 ft 5 kts 204°
2026-05-05 22:10 40.49471 -3.56245 1976 ft 8 kts 185°
2026-05-05 22:10 40.49436 -3.56245 1971 ft 0 kts 180°
2026-05-05 22:10 40.49435 -3.56245 1971 ft 0 kts 181°
2026-05-05 22:11 40.49429 -3.56248 1970 ft 1 kts 194°
2026-05-05 22:11 40.49418 -3.56255 1970 ft 2 kts 211°
2026-05-05 22:11 40.49407 -3.56270 1974 ft 3 kts 225°
2026-05-05 22:11 40.49398 -3.56297 1974 ft 2 kts 251°
2026-05-05 22:12 40.49395 -3.56314 1970 ft 1 kts 258°
2026-05-05 22:12 40.49395 -3.56316 1975 ft 1 kts 260°
2026-05-05 22:12 40.49394 -3.56324 1976 ft 2 kts 262°
2026-05-05 22:12 40.49394 -3.56334 1971 ft 1 kts 264°
2026-05-05 22:13 40.49393 -3.56338 1971 ft 2 kts 265°
2026-05-05 22:13 40.49393 -3.56344 1972 ft 2 kts 266°
2026-05-05 22:13 40.49393 -3.56347 1972 ft 1 kts 265°
2026-05-05 22:13 40.49393 -3.56352 1975 ft 0 kts 266°
2026-05-05 22:14 40.49393 -3.56355 1975 ft 0 kts 266°